Regional Weather Roundup
Issued by NWS

Home | Current Version | Previous Version | Text Only | Print | Product List | Glossary On
Versions: 1 2 3 4 5 6 7 8 9 10 11 12 13 14 15 16 17 18 19 20 21 22 23 24 25 26 27 28 29 30 31 32 33 34 35 36 37 38 39 40 41 42 43 44 45 46 47 48 49 50
000
ASUS44 KJAN 281610
RWRMS

MISSISSIPPI HOURLY WEATHER ROUNDUP
NATIONAL WEATHER SERVICE JACKSON MS
1100 AM CDT THU MAY 28 2015

NOTE: "FAIR: INDICATES FEW OR NO CLOUDS BELOW 12,000 FEET WITH NO
SIGNIFICANT WEATHER AND/OR OBSTRUCTIONS TO VISIBILITY.

MSZ001>002-007>008-010>013-018>021-025>028-034>036-281700-
NORTHWEST MISSISSIPPI

CITY           SKY/WX    TMP DP  RH WIND       PRES   REMARKS
CLARKSDALE     CLOUDY    73  72  94 MISG      30.17R
CLEVELAND      CLOUDY    74  72  91 SE3       30.15R
GREENWOOD      CLOUDY    73  67  81 SE5       30.15R
GREENVILLE     CLOUDY    75  70  84 CALM      30.15R
OLIVE BRANCH   CLOUDY    73  72  94 SE6       30.16S
OXFORD         CLOUDY    72  64  78 SE7       30.18S
TUNICA         CLOUDY    73  68  83 CALM      30.17R
$$

MSZ003>006-009-014>017-022>024-029>033-037>039-281700-
NORTHEAST MISSISSIPPI

CITY           SKY/WX    TMP DP  RH WIND       PRES   REMARKS
COLUMBUS AFB   CLOUDY    77  74  90 VRB5      30.16S
CORINTH        CLOUDY    70  64  83 SE5       30.18S
GOLDN TRIANGLE PTSUNNY   73  68  83 SE5       30.15F
STARKVILLE     CLOUDY    73  68  83 SE5       30.16R
TUPELO         CLOUDY    71  66  84 SE5       30.17S
$$

MSZ040-058-281700-
CENTRAL MISSISSIPPI

CITY           SKY/WX    TMP DP  RH WIND       PRES   REMARKS
JACKSON INTL   MOSUNNY   80  66  62 VRB3      30.13S
JACKSON HAWKNS SUNNY     79  66  64 CALM      30.14R
MERIDIAN KEY   LGT RAIN  77  70  79 SE3       30.15S
MERIDIAN NAS   PTSUNNY   77  68  73 SE9       30.16S
RAYMOND        FAIR      81  75  83 VRB3      30.13S
VICKSBURG      SUNNY     81  70  69 CALM      30.13S
$$

MSZ059>079-281700-
SOUTH MISSISSIPPI

CITY           SKY/WX    TMP DP  RH WIND       PRES   REMARKS
BROOKHAVEN       N/A     79  79 100 E3        30.15R
HATTIESBURG    MOSUNNY   81  73  76 VRB3      30.14S
MCCOMB         PTSUNNY   81  70  69 VRB5      30.13R
NATCHEZ        MOSUNNY   81  70  69 W5        30.13R
PINE BELT      CLOUDY    75  64  69 CALM      30.16R
$$

MSZ080>082-281700-
COASTAL MISSISSIPPI

CITY           SKY/WX    TMP DP  RH WIND       PRES   REMARKS
BAY ST LOUIS   MOSUNNY   82  68  61 MISG      30.11F
BILOXI         MOSUNNY   84  75  74 S8        30.11S HX  92
PASCAGOULA     LGT RAIN  75  72  90 S5        30.12S
GULFPORT       MOSUNNY   85  72  65 S8        30.11S HX  91
$$



USA.gov is the U.S. government's official web portal to all federal, state and local government web resources and services.